Regional Weather Roundup
Issued by NWS

Home | Current Version | Previous Version | Text Only | Print | Product List | Glossary On
Versions: 1 2 3 4 5 6 7 8 9 10 11 12 13 14 15 16 17 18 19 20 21 22 23 24 25 26 27 28 29 30 31 32 33 34 35 36 37 38 39 40 41 42 43 44 45 46 47 48 49 50
000
ASUS43 KLMK 032202
RWRKY
KENTUCKY REGIONAL WEATHER ROUNDUP
NATIONAL WEATHER SERVICE LOUISVILLE KY
600 PM EDT WED JUN 03 2015

NOTE "FAIR" INDICATES FEW OR NO CLOUDS BELOW 12,000 FEET
WITH NO SIGNIFICANT WEATHER AND/OR OBSTRUCTIONS TO VISIBILITY.

KYZ001>023-026-027-061>063-070>075-032300-
WESTERN AND SOUTH CENTRAL KENTUCKY

CITY           SKY/WX    TMP DP  RH WIND       PRES   REMARKS
PADUCAH        SUNNY     79  59  50 MISG      29.98F
HENDERSON      MOSUNNY   72  57  60 E7        30.00S
OWENSBORO      CLOUDY    68  58  70 NE6       30.03S
HOPKINSVILLE   PTSUNNY   73  58  61 NE3       29.99S
BOWLING GREEN  MOSUNNY   73  58  59 NW6       30.01S
GLASGOW        NOT AVBL
$$

KYZ024-025-028>034-038-045-046-053-032300-
NORTH CENTRAL KENTUCKY

CITY           SKY/WX    TMP DP  RH WIND       PRES   REMARKS
LOUISVILLE/SDF CLOUDY    70  56  61 VRB5      30.01F
LOUISVILLE/LOU CLOUDY    70  57  63 NE6       30.02F
FORT KNOX      CLOUDY    67  57  71 E1        30.01F
$$

KYZ035>037-039>044-047>052-055>060-089>105-032300-
NORTHEAST KENTUCKY

CITY           SKY/WX    TMP DP  RH WIND       PRES   REMARKS
LEXINGTON      CLOUDY    66  58  75 N6        30.03F
COVINGTON      PTSUNNY   71  57  61 CALM      30.03R
FRANKFORT      CLOUDY    68  57  68 VRB3      30.02F
$$

KYZ054-064>069-076>088-106>120-032300-
SOUTHEAST KENTUCKY

CITY           SKY/WX    TMP DP  RH WIND       PRES   REMARKS
JACKSON        PTSUNNY   72  60  66 CALM      30.02S
LONDON         SUNNY     74  57  55 NW6       30.00F
SOMERSET       NOT AVBL
MIDDLESBORO    MOSUNNY   77  63  61 N5        29.97F
MONTICELLO     PTCLDY    75  62  64 N5        30.02F
$$



USA.gov is the U.S. government's official web portal to all federal, state and local government web resources and services.